Home   Weather   Bend   Past weeks

Flag for USA Past Weather in Bend, Oregon, USA — Yesterday and Last 2 Weeks

Now
78 °F

Sunny.


Feels Like: 77 °F
Forecast: 46 / 82 °F
Wind: No wind

Location: Roberts Field Airport

Current Time: Sep 25, 2016 at 1:52:22 PM

Latest Report: Sep 25, 2016 at 12:56 PM


Visibility: 10 mi

Pressure: 30.35 "Hg (26.75 "Hg at 1103m altitude)

Humidity: 19%

Dew Point: 32 °F

Location of BendLocation

Past Weather in Bend — Graph

°F

Bend Temperature Yesterday

Maximum temperature yesterday: 71 °F (at 3:56 PM)
Minimum temperature yesterday: 32 °F (at 6:56 AM)
Average temperature yesterday: 52 °F

High & Low Weather Summary for the Past Weeks

 TemperatureHumidityPressure
High90 °F (Sep 10, 3:56 PM)92% (Sep 24, 5:56 AM)30.44 "Hg (Sep 24, 5:56 AM)
Low25 °F (Sep 14, 4:56 AM)6% (Sep 10, 12:56 PM)29.89 "Hg (Sep 21, 4:56 PM)
Average56 °F44%30.08 "Hg
* Reported Sep 10 11:56 AM — Sep 25 11:56 AM, Bend, Weather by CustomWeather, © 2016

Note: Actual official high and low records may vary slightly from our data, if they occured in-between our weather recording intervals... More about our weather records

Advertising

Bend Weather History for the Previous 24 Hours

Scroll right to see more
 ConditionsComfort  
Time TempWeatherWind HumidityBarometerVisibility
11:56 AM
Sun, Sep 25
75 °FSunny.3 mph14%30.37 "Hg10 mi
10:56 AM71 °FSunny.5 mph16%30.40 "Hg10 mi
9:56 AM64 °FSunny.5 mph21%30.42 "Hg10 mi
8:56 AM56 °FSunny.3 mph27%30.43 "Hg10 mi
7:56 AM48 °FSunny.7 mph34%30.44 "Hg10 mi
6:56 AM38 °FSunny.3 mph45%30.43 "Hg10 mi
5:56 AM41 °FClear.No wind41%30.41 "Hg10 mi
4:56 AM42 °FClear.3 mph39%30.40 "Hg10 mi
3:56 AM44 °FClear.7 mph37%30.40 "Hg10 mi
2:56 AM44 °FClear.No wind37%30.41 "Hg10 mi
1:56 AM45 °FClear.6 mph38%30.40 "Hg10 mi
12:56 AM46 °FClear.6 mph38%30.40 "Hg10 mi
11:56 PM
Sat, Sep 24
46 °FClear.5 mph35%30.39 "Hg10 mi
10:56 PM47 °FClear.No wind37%30.38 "Hg10 mi
9:56 PM48 °FClear.3 mph33%30.37 "Hg10 mi
8:56 PM55 °FClear.5 mph25%30.37 "Hg10 mi
7:56 PM55 °FClear.No wind25%30.34 "Hg10 mi
6:56 PM66 °FClear.5 mph16%30.33 "Hg10 mi
5:56 PM70 °FSunny.3 mph13%30.31 "Hg10 mi
4:56 PM71 °FSunny.No wind12%30.31 "Hg10 mi
3:56 PM71 °FSunny.No wind8%30.32 "Hg10 mi
2:56 PM70 °FSunny.9 mph10%30.32 "Hg10 mi
1:56 PM66 °FSunny.No wind19%30.32 "Hg10 mi
Weather by CustomWeather, © 2016

See weather overviewHow to use our weather pages